TimeCDT,TemperatureF,Dew PointF,Humidity,Sea Level PressureIn,VisibilityMPH,Wind Direction,Wind SpeedMPH,Gust SpeedMPH,PrecipitationIn,Events,Conditions,WindDirDegrees,DateUTC
12:15 AM,28.4,16.3,61,29.96,10.0,WNW,23.0,38.0,N/A,,Overcast,300,2014-04-01 05:15:00
12:35 AM,28.9,16.7,60,29.97,10.0,WNW,25.3,32.2,N/A,,Overcast,300,2014-04-01 05:35:00
1:15 AM,28.2,16.5,62,29.97,10.0,NW,17.3,32.2,N/A,,Mostly Cloudy,310,2014-04-01 06:15:00
1:35 AM,28.2,17.2,63,29.97,10.0,WNW,17.3,27.6,N/A,,Mostly Cloudy,300,2014-04-01 06:35:00
1:55 AM,27.9,17.6,65,29.97,10.0,NW,15.0,-,N/A,,Scattered Clouds,310,2014-04-01 06:55:00
2:15 AM,27.5,17.2,65,29.97,10.0,WNW,16.1,25.3,N/A,,Clear,300,2014-04-01 07:15:00
2:35 AM,27.1,16.7,65,29.97,10.0,NW,15.0,20.7,N/A,,Clear,320,2014-04-01 07:35:00
2:55 AM,27.1,17.1,66,30.01,10.0,WNW,18.4,25.3,N/A,,Clear,290,2014-04-01 07:55:00
3:15 AM,26.6,17.4,68,30.02,10.0,WNW,15.0,20.7,N/A,,Clear,300,2014-04-01 08:15:00
3:35 AM,26.4,17.4,69,30.01,10.0,WNW,15.0,-,N/A,,Clear,300,2014-04-01 08:35:00
3:55 AM,25.7,15.8,66,29.97,10.0,NNW,20.7,25.3,N/A,,Clear,330,2014-04-01 08:55:00
4:15 AM,25.2,15.6,67,29.99,10.0,NW,15.0,19.6,N/A,,Clear,320,2014-04-01 09:15:00
4:35 AM,24.8,15.8,69,30.01,10.0,NW,12.7,19.6,N/A,,Clear,310,2014-04-01 09:35:00
4:55 AM,24.6,15.8,69,30.04,10.0,WNW,10.4,-,N/A,,Clear,290,2014-04-01 09:55:00
5:15 AM,24.3,15.3,69,30.03,10.0,NW,12.7,-,N/A,,Clear,320,2014-04-01 10:15:00
5:35 AM,23.7,14.9,69,30.02,10.0,NW,11.5,-,N/A,,Clear,320,2014-04-01 10:35:00
5:55 AM,23.5,14.9,70,30.04,10.0,WNW,5.8,-,N/A,,Clear,290,2014-04-01 10:55:00
6:15 AM,23.5,15.3,71,30.04,10.0,WNW,12.7,-,N/A,,Clear,300,2014-04-01 11:15:00
6:35 AM,22.1,14.0,71,30.03,10.0,NW,5.8,-,N/A,,Clear,310,2014-04-01 11:35:00
6:55 AM,21.7,14.0,72,30.03,10.0,NW,6.9,-,N/A,,Clear,320,2014-04-01 11:55:00
7:15 AM,21.7,14.4,73,30.05,10.0,WNW,10.4,-,N/A,,Clear,290,2014-04-01 12:15:00
7:35 AM,23.0,14.9,71,30.07,10.0,West,8.1,-,N/A,,Clear,270,2014-04-01 12:35:00
7:55 AM,23.5,14.9,70,30.08,10.0,West,6.9,-,N/A,,Clear,270,2014-04-01 12:55:00
8:15 AM,24.6,15.4,68,30.09,10.0,West,9.2,-,N/A,,Clear,280,2014-04-01 13:15:00
8:35 AM,26.6,15.1,62,30.10,10.0,WNW,16.1,19.6,N/A,,Clear,300,2014-04-01 13:35:00
8:55 AM,27.0,14.2,59,30.11,10.0,NW,15.0,-,N/A,,Clear,310,2014-04-01 13:55:00
9:15 AM,27.9,14.2,57,30.12,10.0,NW,15.0,19.6,N/A,,Clear,310,2014-04-01 14:15:00
9:35 AM,28.4,14.0,55,30.11,10.0,WNW,11.5,17.3,N/A,,Clear,300,2014-04-01 14:35:00
9:55 AM,29.1,14.0,53,30.10,10.0,NW,15.0,-,N/A,,Clear,310,2014-04-01 14:55:00
10:15 AM,30.0,14.2,52,30.10,10.0,NNW,13.8,-,N/A,,Clear,330,2014-04-01 15:15:00
10:35 AM,30.4,14.4,51,30.09,10.0,North,11.5,17.3,N/A,,Clear,350,2014-04-01 15:35:00
10:55 AM,31.8,14.7,49,30.09,10.0,NNW,16.1,20.7,N/A,,Clear,340,2014-04-01 15:55:00
11:15 AM,31.8,14.5,49,30.07,10.0,North,18.4,23.0,N/A,,Clear,350,2014-04-01 16:15:00
11:35 AM,32.9,15.1,48,30.05,10.0,North,17.3,24.2,N/A,,Clear,350,2014-04-01 16:35:00
11:55 AM,33.8,14.7,46,30.10,10.0,NNW,9.2,18.4,N/A,,Clear,340,2014-04-01 16:55:00
12:15 PM,33.4,14.4,46,30.12,10.0,Calm,Calm,-,N/A,,Clear,0,2014-04-01 17:15:00
12:35 PM,34.3,15.1,45,30.12,10.0,WNW,5.8,-,N/A,,Clear,300,2014-04-01 17:35:00
12:55 PM,35.4,14.9,43,30.12,10.0,Calm,Calm,-,N/A,,Clear,0,2014-04-01 17:55:00
1:15 PM,36.1,14.7,42,30.12,10.0,West,8.1,-,N/A,,Clear,280,2014-04-01 18:15:00
1:35 PM,38.7,15.4,39,30.09,10.0,North,3.5,-,N/A,,Clear,350,2014-04-01 18:35:00
1:55 PM,39.4,15.4,38,30.09,10.0,North,6.9,-,N/A,,Clear,350,2014-04-01 18:55:00
2:15 PM,40.1,15.3,36,30.07,10.0,North,10.4,-,N/A,,Scattered Clouds,360,2014-04-01 19:15:00
2:35 PM,41.0,15.4,36,30.07,10.0,North,5.8,-,N/A,,Scattered Clouds,360,2014-04-01 19:35:00
2:55 PM,40.8,15.4,36,30.08,10.0,NNW,4.6,-,N/A,,Clear,330,2014-04-01 19:55:00
3:15 PM,41.5,16.0,36,30.07,10.0,North,4.6,-,N/A,,Clear,360,2014-04-01 20:15:00
3:35 PM,41.5,16.2,36,30.06,10.0,North,4.6,-,N/A,,Clear,350,2014-04-01 20:35:00
3:55 PM,42.3,16.3,35,30.06,10.0,NNW,6.9,-,N/A,,Clear,340,2014-04-01 20:55:00
4:15 PM,42.1,16.3,35,30.04,10.0,North,6.9,-,N/A,,Scattered Clouds,350,2014-04-01 21:15:00
4:35 PM,42.6,16.3,35,30.03,10.0,NNE,6.9,-,N/A,,Scattered Clouds,30,2014-04-01 21:35:00
4:55 PM,42.8,16.5,35,30.02,10.0,NNE,6.9,-,N/A,,Scattered Clouds,20,2014-04-01 21:55:00
5:15 PM,42.8,16.5,35,30.04,10.0,NE,4.6,-,N/A,,Mostly Cloudy,50,2014-04-01 22:15:00
5:35 PM,42.8,16.7,35,30.03,10.0,North,6.9,-,N/A,,Overcast,10,2014-04-01 22:35:00
5:55 PM,42.8,16.7,35,30.02,10.0,NNE,8.1,-,N/A,,Overcast,30,2014-04-01 22:55:00
6:15 PM,42.8,17.2,36,30.03,10.0,NNE,8.1,-,N/A,,Overcast,30,2014-04-01 23:15:00
6:35 PM,42.8,17.2,36,30.03,10.0,NNE,8.1,-,N/A,,Overcast,30,2014-04-01 23:35:00
6:55 PM,41.9,17.2,37,30.03,10.0,NNE,10.4,-,N/A,,Overcast,30,2014-04-01 23:55:00
7:15 PM,41.0,17.4,39,30.04,10.0,NE,9.2,-,N/A,,Overcast,40,2014-04-02 00:15:00
7:35 PM,40.3,17.6,40,30.04,10.0,NNE,9.2,-,N/A,,Overcast,30,2014-04-02 00:35:00
7:55 PM,39.7,18.1,42,30.04,10.0,NE,6.9,-,N/A,,Overcast,40,2014-04-02 00:55:00
8:15 PM,39.4,18.3,43,30.05,10.0,NE,8.1,-,N/A,,Overcast,40,2014-04-02 01:15:00
8:35 PM,38.7,18.7,45,30.05,10.0,NE,10.4,-,N/A,,Overcast,50,2014-04-02 01:35:00
8:55 PM,38.1,18.7,46,30.07,10.0,NE,8.1,-,N/A,,Overcast,50,2014-04-02 01:55:00
9:15 PM,36.9,18.3,47,30.07,10.0,NE,9.2,-,N/A,,Overcast,40,2014-04-02 02:15:00
9:35 PM,36.3,18.5,48,30.07,10.0,NE,8.1,-,N/A,,Overcast,40,2014-04-02 02:35:00
9:55 PM,36.1,18.5,49,30.07,10.0,NE,9.2,-,N/A,,Overcast,40,2014-04-02 02:55:00
10:15 PM,34.7,18.9,52,30.07,10.0,NNE,8.1,-,N/A,,Overcast,30,2014-04-02 03:15:00
10:35 PM,35.2,18.9,51,30.07,10.0,NNE,6.9,-,N/A,,Overcast,30,2014-04-02 03:35:00
10:55 PM,34.7,19.2,53,30.08,10.0,NNE,5.8,-,N/A,,Overcast,20,2014-04-02 03:55:00
11:15 PM,33.4,19.2,56,30.07,10.0,NNE,8.1,-,N/A,,Overcast,20,2014-04-02 04:15:00
11:35 PM,31.5,18.7,59,30.07,10.0,North,8.1,-,N/A,,Mostly Cloudy,10,2014-04-02 04:35:00
11:55 PM,31.1,18.9,61,30.07,10.0,North,8.1,-,N/A,,Mostly Cloudy,360,2014-04-02 04:55:00